Regional Weather Roundup
Issued by NWS

Home | Current Version | Previous Version | Graphics & Text | Print | Product List | Glossary On
Versions: 1 2 3 4 5 6 7 8 9 10 11 12 13 14 15 16 17 18 19 20 21 22 23 24 25 26 27 28 29 30 31 32 33 34 35 36 37 38 39 40 41 42 43 44 45 46 47 48 49 50
000
ASUS43 KTOP 250608
RWRKS

WEATHER ROUNDUP FOR KANSAS
NATIONAL WEATHER SERVICE GOODLAND KS
100 AM CDT SAT APR 25 2015

NOTE:  "FAIR" INDICATES FEW OR NO CLOUDS BELOW 12,000 FEET WITH NO
SIGNIFICANT WEATHER AND/OR OBSTRUCTIONS TO VISIBILITY.

KSZ001>006-013>018-027>032-041>047-250700-
NORTHWEST KANSAS

CITY           SKY/WX    TMP DP  RH WIND       PRES   REMARKS
GOODLAND       CLOUDY    50  43  77 W13       29.61R
6HR MIN TEMP:  50; 6HR MAX TEMP:  63; 6HR PCP: TRACE;

HAYS           CLOUDY    55  48  76 W15       29.53R
HILL CITY      MOCLDY    56  50  80 S3        29.51R
6HR MIN TEMP:  56; 6HR MAX TEMP:  64; 6HR PCP:  0.33;

RUSSELL        MOCLDY    55  53  93 NW13      29.49R
6HR MIN TEMP:  54; 6HR MAX TEMP:  62; 6HR PCP:  0.31;

$$

KSZ061>065-074>080-084>089-250700-
SOUTHWEST KANSAS

CITY           SKY/WX    TMP DP  RH WIND       PRES   REMARKS
DODGE CITY     FAIR      54  46  74 NW8       29.59R
6HR MIN TEMP:  54; 6HR MAX TEMP:  68; 6HR PCP:  0.02;

ELKHART          N/A     51  41  69 W9          N/A
GARDEN CITY    MOCLDY    52  44  74 NW12      29.60R
6HR MIN TEMP:  51; 6HR MAX TEMP:  61; 6HR PCP:  0.01;

GREAT BEND     CLOUDY    55  52  88 S9        29.49S
LIBERAL        FAIR      54  43  66 W10       29.63R
$$

KSZ066>073-081>083-090>101-250700-
SOUTHEAST KANSAS

CITY           SKY/WX    TMP DP  RH WIND       PRES   REMARKS
CHANUTE        FAIR      60  58  92 S13       29.51F
6HR MIN TEMP:  60; 6HR MAX TEMP:  67;

COFFEYVILLE    MOCLDY    62  58  86 S17       29.53F
6HR MIN TEMP:  62; 6HR MAX TEMP:  68;

HUTCHINSON     MOCLDY    57  53  86 NE9       29.47F
6HR MIN TEMP:  56; 6HR MAX TEMP:  75; 6HR PCP:  0.87;

MEDICINE LODGE   N/A     58  54  86 W10       29.50S
NEWTON         CLOUDY    54  48  82 NE14      29.50F THUNDER
PARSONS        FAIR      61  59  93 S7        29.53F
6HR MIN TEMP:  61; 6HR MAX TEMP:  68;

WICHITA INTL   TSTM      64  59  83 S20       29.46S
6HR MIN TEMP:  64; 6HR MAX TEMP:  73; 6HR PCP:  0.01;

WICHITA JABRA  CLOUDY    63  58  83 S18G29    29.46F THUNDER
6HR MIN TEMP:  63; 6HR MAX TEMP:  72;

WICHITA MCCONL CLOUDY    63  59  88 S18       29.47S
WINFIELD       CLOUDY    62  59  90 S17G25    29.49S
6HR MIN TEMP:  62; 6HR MAX TEMP:  71;

$$

KSZ007>012-019>026-033>040-048>060-102>105-250700-
NORTHEAST KANSAS

CITY           SKY/WX    TMP DP  RH WIND       PRES   REMARKS
CONCORDIA      CLOUDY    54  52  93 W12       29.43F
6HR MIN TEMP:  54; 6HR MAX TEMP:  63; 6HR PCP:  1.03;

EMPORIA        TSTM      57  55  93 NW7       29.51R FOG
6HR MIN TEMP:  57; 6HR MAX TEMP:  67; 6HR PCP:  0.15;

LAWRENCE       CLOUDY    60  55  83 SE17      29.50S
6HR MIN TEMP:  60; 6HR MAX TEMP:  65; 6HR PCP:  0.03;

MANHATTAN      CLOUDY    56  55  97 S6        29.42F
6HR MIN TEMP:  56; 6HR MAX TEMP:  64; 6HR PCP:  0.70;

MARYSVILLE     CLOUDY    55  54  94 SE17G24   29.36F
OLATHE IND     CLOUDY    58  54  86 SE13      29.54F
6HR MIN TEMP:  58; 6HR MAX TEMP:  65;

OLATHE EXE     CLOUDY    59  54  83 SE12      29.54F
6HR MIN TEMP:  59; 6HR MAX TEMP:  64;

SALINA         FAIR      56  52  86 S9        29.46F
6HR MIN TEMP:  55; 6HR MAX TEMP:  75; 6HR PCP:  0.26;

TOPEKA BILLARD CLOUDY    63  59  87 SE14      29.47F
6HR MIN TEMP:  63; 6HR MAX TEMP:  65; 6HR PCP:  0.04;

TOPEKA FORBES  CLOUDY    64  59  83 SE14G24   29.46F
6HR MIN TEMP:  64; 6HR MAX TEMP:  67; 6HR PCP:  0.01;

$$


USA.gov is the U.S. government's official web portal to all federal, state and local government web resources and services.